• In Latvia
  • List of Countries
  • For 7 days
  • Water Temperature
  • Satellite Maps
  • Weather Map
  • Weather Widgets
  • user-avatar
    Login

    Hourly Weather Ganja

    Today, 6 December, Tuesday

    Time Temperature Precipitation Wind Pressure Humidity
    00:00 +1°C° 0.7 mm 3 mps 729 mmHg 88%
    01:00 0°C° 0.8 mm 4 mps 730 mmHg 88%
    02:00 0°C° 0.8 mm 5 mps 730 mmHg 87%
    03:00 -1°C° 0 mm 6 mps 730 mmHg 87%
    04:00 -2°C° 0.4 mm 6 mps 730 mmHg 82%
    05:00 -3°C° 0.4 mm 6 mps 731 mmHg 77%
    06:00 -3°C° 0.4 mm 6 mps 731 mmHg 72%
    07:00 -3°C° 0.1 mm 6 mps 732 mmHg 70%
    08:00 -3°C° 0.1 mm 6 mps 732 mmHg 67%
    09:00 -2°C° 0.1 mm 5 mps 733 mmHg 65%
    10:00 -1°C° 0 mm 5 mps 733 mmHg 63%
    11:00 0°C° 0 mm 5 mps 733 mmHg 60%
    12:00 0°C° 0 mm 5 mps 733 mmHg 58%
    13:00 0°C° 0 mm 4 mps 733 mmHg 60%
    14:00 0°C° 0 mm 4 mps 733 mmHg 61%
    15:00 +1°C° 0 mm 3 mps 733 mmHg 63%
    16:00 0°C° 0 mm 3 mps 733 mmHg 67%
    17:00 -2°C° 0 mm 2 mps 733 mmHg 71%
    18:00 -4°C° 0 mm 2 mps 733 mmHg 76%
    19:00 -4°C° 0 mm 2 mps 733 mmHg 75%
    20:00 -4°C° 0 mm 2 mps 733 mmHg 74%
    21:00 -2°C° 0 mm 1 mps 733 mmHg 73%
    22:00 -4°C° 0 mm 2 mps 733 mmHg 71%
    23:00 -3°C° 0 mm 2 mps 733 mmHg 69%

    Tomorrow, 7 December, Wednesday

    Time Temperature Precipitation Wind Pressure Humidity
    00:00 -3°C° 0 mm 2 mps 733 mmHg 68%
    01:00 -3°C° 0 mm 2 mps 733 mmHg 67%
    02:00 -4°C° 0 mm 3 mps 732 mmHg 66%
    03:00 -4°C° 0 mm 3 mps 732 mmHg 66%
    04:00 -4°C° 0 mm 3 mps 732 mmHg 66%
    05:00 -4°C° 0 mm 3 mps 731 mmHg 65%
    06:00 -4°C° 0 mm 3 mps 731 mmHg 65%
    07:00 -2°C° 0 mm 3 mps 731 mmHg 64%
    08:00 -2°C° 0 mm 4 mps 731 mmHg 62%
    09:00 0°C° 0 mm 4 mps 730 mmHg 60%
    10:00 +1°C° 0 mm 4 mps 730 mmHg 58%
    11:00 +3°C° 0 mm 4 mps 729 mmHg 56%
    12:00 +5°C° 0 mm 4 mps 728 mmHg 54%
    13:00 +4°C° 0 mm 4 mps 728 mmHg 56%
    14:00 +4°C° 0 mm 4 mps 728 mmHg 57%
    15:00 +4°C° 0 mm 4 mps 728 mmHg 59%
    16:00 +1°C° 0 mm 4 mps 728 mmHg 62%
    17:00 0°C° 0 mm 4 mps 728 mmHg 64%
    18:00 -2°C° 0 mm 4 mps 729 mmHg 66%
    19:00 -2°C° 0 mm 4 mps 729 mmHg 65%
    20:00 -2°C° 0 mm 4 mps 729 mmHg 63%
    21:00 -2°C° 0 mm 4 mps 729 mmHg 62%
    22:00 -2°C° 0 mm 4 mps 729 mmHg 62%
    23:00 -2°C° 0 mm 4 mps 729 mmHg 62%

    Day after tomorrow, 8 December, Thursday

    Time Temperature Precipitation Wind Pressure Humidity
    00:00 -2°C° 0 mm 4 mps 729 mmHg 62%
    01:00 -2°C° 0 mm 3 mps 730 mmHg 62%
    02:00 -2°C° 0 mm 3 mps 730 mmHg 63%
    03:00 -2°C° 0 mm 3 mps 730 mmHg 63%
    04:00 -2°C° 0 mm 3 mps 731 mmHg 64%
    05:00 -2°C° 0 mm 2 mps 731 mmHg 65%
    06:00 -2°C° 0 mm 2 mps 732 mmHg 67%
    07:00 -1°C° 0 mm 2 mps 733 mmHg 66%
    08:00 -1°C° 0 mm 3 mps 734 mmHg 65%
    09:00 0°C° 0 mm 3 mps 735 mmHg 64%
    10:00 0°C° 0.1 mm 3 mps 734 mmHg 63%
    11:00 -1°C° 0.1 mm 4 mps 734 mmHg 61%
    12:00 0°C° 0.1 mm 4 mps 734 mmHg 60%
    13:00 0°C° 0 mm 4 mps 734 mmHg 60%
    14:00 0°C° 0 mm 4 mps 734 mmHg 60%
    15:00 0°C° 0 mm 3 mps 734 mmHg 59%
    16:00 -1°C° 0 mm 3 mps 734 mmHg 64%
    17:00 -3°C° 0 mm 2 mps 735 mmHg 68%
    18:00 -4°C° 0 mm 2 mps 735 mmHg 72%
    19:00 -5°C° 0 mm 2 mps 735 mmHg 73%
    20:00 -3°C° 0 mm 1 mps 735 mmHg 73%
    21:00 -4°C° 0 mm 1 mps 735 mmHg 74%
    22:00 -4°C° 0 mm 1 mps 735 mmHg 75%
    23:00 -4°C° 0 mm 1 mps 735 mmHg 77%

    9 December, Friday

    Time Temperature Precipitation Wind Pressure Humidity
    00:00 -6°C° 0 mm 1 mps 735 mmHg 78%
    01:00 -6°C° 0 mm 1 mps 735 mmHg 77%
    02:00 -6°C° 0 mm 1 mps 734 mmHg 76%
    03:00 -6°C° 0 mm 1 mps 734 mmHg 76%
    04:00 -6°C° 0 mm 2 mps 734 mmHg 74%
    05:00 -6°C° 0 mm 2 mps 734 mmHg 73%
    06:00 -6°C° 0 mm 2 mps 734 mmHg 71%
    07:00 -5°C° 0 mm 2 mps 733 mmHg 68%
    08:00 -3°C° 0 mm 2 mps 733 mmHg 65%
    09:00 -2°C° 0 mm 2 mps 733 mmHg 62%
    10:00 -1°C° 0 mm 2 mps 733 mmHg 59%
    11:00 +1°C° 0 mm 2 mps 732 mmHg 56%
    12:00 +2°C° 0 mm 2 mps 731 mmHg 53%
    13:00 +2°C° 0 mm 2 mps 731 mmHg 55%
    14:00 +2°C° 0 mm 2 mps 730 mmHg 56%
    15:00 +2°C° 0 mm 2 mps 730 mmHg 58%
    16:00 +1°C° 0 mm 2 mps 730 mmHg 62%
    17:00 -2°C° 0 mm 2 mps 730 mmHg 66%
    18:00 -4°C° 0 mm 2 mps 730 mmHg 70%
    19:00 -3°C° 0 mm 2 mps 730 mmHg 69%
    20:00 -3°C° 0 mm 2 mps 730 mmHg 67%
    21:00 -3°C° 0 mm 2 mps 729 mmHg 66%
    22:00 -4°C° 0 mm 3 mps 729 mmHg 65%
    23:00 -4°C° 0 mm 3 mps 729 mmHg 64%

    10 December, Saturday

    Time Temperature Precipitation Wind Pressure Humidity
    00:00 -4°C° 0 mm 3 mps 728 mmHg 64%
    01:00 -2°C° 0 mm 3 mps 728 mmHg 63%
    02:00 -2°C° 0 mm 3 mps 727 mmHg 63%
    03:00 -2°C° 0 mm 3 mps 727 mmHg 62%
    04:00 -2°C° 0 mm 3 mps 727 mmHg 62%
    05:00 -2°C° 0 mm 3 mps 726 mmHg 62%
    06:00 -2°C° 0 mm 3 mps 726 mmHg 62%
    07:00 -1°C° 0 mm 3 mps 725 mmHg 61%
    08:00 +1°C° 0 mm 3 mps 725 mmHg 59%
    09:00 +2°C° 0 mm 3 mps 725 mmHg 58%
    10:00 +3°C° 0 mm 3 mps 724 mmHg 56%
    11:00 +4°C° 0 mm 3 mps 723 mmHg 55%
    12:00 +5°C° 0 mm 3 mps 723 mmHg 53%
    13:00 +5°C° 0 mm 3 mps 723 mmHg 55%
    14:00 +5°C° 0 mm 4 mps 723 mmHg 58%
    15:00 +5°C° 0 mm 4 mps 723 mmHg 60%
    16:00 +4°C° 0 mm 4 mps 723 mmHg 63%
    17:00 +1°C° 0 mm 4 mps 724 mmHg 66%
    18:00 +1°C° 0 mm 3 mps 724 mmHg 69%
    19:00 +1°C° 0 mm 3 mps 724 mmHg 69%
    20:00 +1°C° 0 mm 3 mps 725 mmHg 70%
    21:00 +1°C° 0 mm 3 mps 725 mmHg 70%
    22:00 +1°C° 0 mm 3 mps 725 mmHg 70%
    23:00 +1°C° 0 mm 3 mps 726 mmHg 71%

    11 December, Sunday

    Time Temperature Precipitation Wind Pressure Humidity
    00:00 +2°C° 0 mm 2 mps 726 mmHg 72%
    01:00 +2°C° 0 mm 2 mps 726 mmHg 72%
    02:00 +2°C° 0 mm 2 mps 726 mmHg 73%
    03:00 +2°C° 0 mm 2 mps 726 mmHg 73%
    04:00 +1°C° 0 mm 2 mps 727 mmHg 75%
    05:00 +2°C° 0 mm 1 mps 727 mmHg 77%
    06:00 +2°C° 0 mm 1 mps 727 mmHg 79%
    07:00 +3°C° 0 mm 1 mps 727 mmHg 75%
    08:00 +4°C° 0 mm 1 mps 727 mmHg 71%
    09:00 +5°C° 0 mm 1 mps 728 mmHg 67%
    10:00 +6°C° 0 mm 1 mps 727 mmHg 64%
    11:00 +7°C° 0 mm 1 mps 726 mmHg 61%
    12:00 +7°C° 0 mm 2 mps 726 mmHg 59%
    13:00 +7°C° 0 mm 2 mps 726 mmHg 61%
    14:00 +7°C° 0 mm 2 mps 725 mmHg 63%
    15:00 +6°C° 0 mm 2 mps 725 mmHg 66%
    16:00 +5°C° 0 mm 2 mps 725 mmHg 69%
    17:00 +4°C° 0 mm 2 mps 725 mmHg 73%
    18:00 +3°C° 0 mm 2 mps 725 mmHg 76%
    19:00 +3°C° 0 mm 2 mps 726 mmHg 75%
    20:00 +2°C° 0 mm 3 mps 726 mmHg 74%
    21:00 +2°C° 0 mm 3 mps 726 mmHg 73%
    22:00 +2°C° 0 mm 3 mps 726 mmHg 73%
    23:00 +2°C° 0 mm 3 mps 725 mmHg 73%
    Show more